Regional Weather Roundup
Issued by NWS Kansas City/Pleasant Hill, MO

Home | Current Version | Previous Version | Graphics & Text | Print | Product List | Glossary Off
Versions: 1 2 3 4 5 6 7 8 9 10 11 12 13 14 15 16 17 18 19 20 21 22 23 24 25 26 27 28 29 30 31 32 33 34 35 36 37 38 39 40 41 42 43 44 45 46 47 48 49 50

000
ASUS43 KEAX 171810
RWREAX

WEATHER ROUNDUP FOR EASTERN KANSAS AND NORTHWEST MISSOURI
NATIONAL WEATHER SERVICE KANSAS CITY/PLEASANT HILL MO
100 PM CDT WED SEP 17 2014

KSZ040-057-103>105-MOZ028-029-037-043-171900-
...KANSAS CITY METROPOLITAN AREA...

CITY           SKY/WX    TMP DP  RH WIND       PRES   REMARKS
K.C. INTL      CLOUDY    70  66  87 E5        29.94S
6HR MIN TEMP:  62; 6HR MAX TEMP:  70; 6HR PCP: TRACE;

K.C. DOWNTOWN  CLOUDY    70  65  84 E5        29.93S
6HR MIN TEMP:  64; 6HR MAX TEMP:  70;

LEES SUMMIT    CLOUDY    67  65  93 E6        29.95S
6HR MIN TEMP:  62; 6HR MAX TEMP:  68; 6HR PCP:  0.04;

OLATHE - IXD   CLOUDY    73  67  81 NE3       29.94S
6HR MIN TEMP:  65; 6HR MAX TEMP:  73;

OLATHE - OJC   CLOUDY    71  68  90 E5        29.93S
6HR MIN TEMP:  63; 6HR MAX TEMP:  72;

LAWRENCE       CLOUDY    74  67  78 NE5       29.92F

$$

MOZ001>008-011>017-020>025-030>033-038>040-044>046-053-054-171900-
...NORTHERN AND CENTRAL MISSOURI...

CITY           SKY/WX    TMP DP  RH WIND       PRES   REMARKS
ST. JOSEPH     CLOUDY    69  64  84 VRB3      29.94F
6HR MIN TEMP:  63; 6HR MAX TEMP:  69;

MOSBY          CLOUDY    66  64  94 CALM      29.94F
WHITEMAN AFB   CLOUDY    69  66  92 S3        29.94S FOG
6HR MIN TEMP:  62; 6HR MAX TEMP:  69; 6HR PCP:  0.19;

CLINTON        CLOUDY    70  68  94 SE5       29.94F
SEDALIA        CLOUDY    69  66  90 SE3       29.95F
6HR MIN TEMP:  63; 6HR MAX TEMP:  69; 6HR PCP:  0.33;

WARSAW         NOT AVBL
MARSHALL       CLOUDY    68  66  94 E3        29.96S
CHILLICOTHE      N/A     72  64  76 VRB3      29.96F
6HR MIN TEMP:  60; 6HR MAX TEMP:  72;

MOBERLY        CLOUDY    70  59  68 E5        29.98S
KIRKSVILLE     CLOUDY    68  61  78 E6        29.97F
6HR MIN TEMP:  56; 6HR MAX TEMP:  68; 6HR PCP: TRACE;


$$

MOZ041-047>049-056>058-063>065-088>090-097-171900-
...EASTERN AND SOUTHERN MISSOURI...

CITY           SKY/WX    TMP DP  RH WIND       PRES   REMARKS
ST. LOUIS INTL CLOUDY    62  56  80 E10       30.01F
6HR MIN TEMP:  55; 6HR MAX TEMP:  62; 6HR PCP:  0.08;

SPIRIT OF STL  CLOUDY    64  57  78 SE9       29.97F
COLUMBIA       CLOUDY    64  32  30 SE6       29.96F HAZE
JEFFERSON CITY CLOUDY    67  62  84 SE5       29.96S
MEXICO         CLOUDY    66  64  94 SE3       29.97F
ROLLA          CLOUDY    65  61  87 SW9       29.97R
LEBANON        FAIR      64  63  94 S10G18    29.96F
OSAGE BEACH    CLOUDY    70  64  83 S6        29.96S
SPRINGFIELD    TSTM      64  63  96 SE9       29.98R FOG
BRANSON        CLOUDY    77  66  69 SE7       30.00S
NEVADA         PTSUNNY   75  70  83 E7        29.93F
JOPLIN         FAIR      84  71  65 W16       29.91F
WEST PLAINS    TSTM      59  57  93 S13       30.02F FOG

$$

IAZ060-094-KSZ022-034>040-054-083-096-NEZ052-066-093-171900-
...KANSAS...SOUTHEAST NEBRASKA AND IOWA...

CITY           SKY/WX    TMP DP  RH WIND       PRES   REMARKS
TOPEKA         CLOUDY    74  69  85 NE6       29.92F
6HR MIN TEMP:  65; 6HR MAX TEMP:  74;

MANHATTAN      CLOUDY    72  66  81 E10       29.92R
EMPORIA        PTSUNNY   79  68  69 NE9       29.91F
CHANUTE        FAIR      88  70  55 W13       29.89F HX  93
WICHITA        FAIR      92  62  36 SW14      29.88F HX  92
OMAHA          FAIR      75  59  57 E5        29.93F
LINCOLN        FAIR      75  63  66 MISG      29.93F
FALLS CITY     PTSUNNY   75  65  70 MISG      29.93S
LAMONI         PTSUNNY   71  61  70 SE6       29.96S
DES MOINES     FAIR      73  56  54 VRB3      29.96S

$$



USA.gov is the U.S. government's official web portal to all federal, state and local government web resources and services.